Stations météo

Publicité
Montelimar, France (7577): Température de l'air & dewpoint: 17.03.2017 13:00:00 - 23.03.2017 13:00:00 (CET)Montelimar, France (7577): Température de l'air 5cm: 17.03.2017 13:00:00 - 23.03.2017 13:00:00 (CET)Montelimar, France (7577): Température de l'air -20cm & Température de l'air -100cm: 17.03.2017 13:00:00 - 23.03.2017 13:00:00 (CET)Montelimar, France (7577): Vitesse du vent & gusts: 17.03.2017 13:00:00 - 23.03.2017 13:00:00 (CET)Montelimar, France (7577): Direction du vent: 17.03.2017 13:00:00 - 23.03.2017 13:00:00 (CET)Montelimar, France (7577): reduced air pressure: 17.03.2017 13:00:00 - 23.03.2017 13:00:00 (CET)Montelimar, France (7577): visibility: 17.03.2017 13:00:00 - 23.03.2017 13:00:00 (CET)Montelimar, France (7577): Ensoleillement: 17.03.2017 13:00:00 - 23.03.2017 13:00:00 (CET)Montelimar, France (7577): Quantités de précipitations: 17.03.2017 13:00:00 - 23.03.2017 13:00:00 (CET)
Date & Time tt [°C] td [°C] tt 5cm [°C] tt -20cm [°C] tt -100cm [°C] ff [km/h] ff [knt] fx [km/h] fx [knt] dd ppp [hPa] vv [km] sd [min] rr [mm]
23.03.2017 13:00:00 17,6 7,3 16,2 12,8 12,0 36 20 62 33 S 1008,5 20 4 0,0
23.03.2017 12:00:00 17,5 6,7 18,4 12,8 12,0 32 17 71 38 S 1008,8 20 46 0,0
23.03.2017 11:00:00 17,7 7,1 19,1 12,7 11,9 31 17 61 33 SSE 1008,6 20 56 0,0
23.03.2017 10:00:00 17,1 7,2 19,7 12,7 11,9 24 13 47 25 SSE 1008,2 20 58 0,0
23.03.2017 09:00:00 14,3 7,8 13,4 12,8 12,0 4 2 18 10 SSW 1008,5 20 27 0,0
23.03.2017 08:00:00 12,9 7,6 11,1 12,9 11,9 11 6 23 12 S 1009,2 20 6 0,0
23.03.2017 07:00:00 12,0 7,9 11,5 12,9 11,9 5 3 12 6 S 1009,2 20 0 0,0
23.03.2017 06:00:00 12,4 7,9 11,8 13,0 11,9 8 4 25 13 S 1009,1 20 0 0,0
23.03.2017 05:00:00 12,4 8,5 11,4 13,0 11,9 9 5 29 16 S 1009,2 20 0 0,0
23.03.2017 04:00:00 12,0 8,1 11,0 13,1 11,9 10 5 18 10 SSW 1009,1 20 0 0,0
23.03.2017 03:00:00 11,8 7,9 10,8 13,1 11,9 6 4 14 7 SSW 1009,4 20 0 0,0
23.03.2017 02:00:00 11,9 7,8 10,6 13,1 11,9 9 5 23 12 SSW 1010,2 20 0 0,0
23.03.2017 01:00:00 12,0 8,3 10,9 13,2 11,9 9 5 16 8 S 1010,6 20 0 0,0
23.03.2017 00:00:00 11,4 9,3 8,9 13,3 11,9 7 4 13 7 SSW 1010,7 20 0 0,0
22.03.2017 23:00:00 10,6 9,0 9,4 13,3 11,9 0 0 4 2 N 1010,8 11 0 0,0
22.03.2017 22:00:00 10,6 8,7 9,5 13,2 11,9 0 0 6 4 N 1010,9 20 0 0,6
22.03.2017 21:00:00 10,7 8,5 9,6 13,2 11,9 5 3 32 17 SSE 1010,8 7 0 1,8
22.03.2017 20:00:00 13,3 7,7 12,8 13,2 11,9 10 5 35 19 S 1010,5 20 0 0,0
22.03.2017 19:00:00 14,1 6,7 13,6 13,1 11,9 17 9 32 17 S 1010,3 20 0 0,0
22.03.2017 18:00:00 15,3 4,3 14,8 13,0 11,9 18 10 30 16 S 1009,5 20 0 0,0
22.03.2017 17:00:00 15,7 3,8 15,5 12,8 11,9 16 9 30 16 S 1009,3 20 0 0,0
22.03.2017 16:00:00 16,3 1,9 16,6 12,7 11,9 13 7 24 13 S 1009,5 20 15 0,0
22.03.2017 15:00:00 16,9 2,5 19,3 12,6 11,9 13 7 25 13 S 1009,7 20 45 0,0
22.03.2017 14:00:00 16,3 5,6 19,7 12,6 11,9 3 2 11 6 S 1010,3 20 37 0,0
22.03.2017 13:00:00 15,0 4,7 20,5 12,5 11,8 4 2 19 10 NNW 1010,9 20 60 0,0
22.03.2017 12:00:00 13,3 5,7 16,9 12,6 11,8 13 7 27 14 NNE 1011,7 20 60 0,0
22.03.2017 11:00:00 11,8 4,5 16,3 12,7 11,8 16 9 32 17 NNE 1012,5 20 60 0,0
22.03.2017 10:00:00 10,5 4,2 12,1 12,8 11,8 18 10 35 19 NNE 1012,9 20 58 0,0
22.03.2017 09:00:00 9,4 4,0 8,9 12,8 11,8 18 10 33 18 N 1013,2 20 43 0,0
22.03.2017 08:00:00 8,9 3,5 7,1 13,0 11,8 21 11 37 20 N 1013,0 20 43 0,0
22.03.2017 07:00:00 7,9 3,4 6,8 13,1 11,8 19 10 38 21 N 1013,2 20 0 0,0
22.03.2017 06:00:00 8,0 3,8 7,2 13,2 11,8 21 11 42 23 N 1013,6 20 0 0,0
22.03.2017 05:00:00 8,2 4,2 7,7 13,3 11,8 22 12 44 24 NNE 1013,3 20 0 0,0
22.03.2017 04:00:00 8,4 4,6 7,8 13,4 11,8 21 11 43 23 NNE 1013,4 20 0 0,0
22.03.2017 03:00:00 8,9 4,5 8,1 13,5 11,8 18 10 40 22 N 1013,2 20 0 0,0
22.03.2017 02:00:00 9,1 4,5 8,2 13,5 11,7 19 10 50 27 N 1013,5 20 0 0,0
22.03.2017 01:00:00 9,7 5,1 9,2 13,6 11,7 27 15 53 29 NNE 1013,6 20 0 0,0
22.03.2017 00:00:00 10,5 5,0 9,6 13,6 11,7 31 17 54 29 NNE 1013,4 20 0 0,0
21.03.2017 23:00:00 11,6 7,7 10,1 13,7 11,7 25 13 45 24 NNE 1013,2 20 0 0,2
21.03.2017 22:00:00 14,2 6,8 12,5 13,6 11,7 5 3 16 9 NNE 1012,6 20 0 0,0
21.03.2017 21:00:00 14,3 6,4 12,5 13,6 11,7 6 3 12 6 N 1011,7 20 0 0,0
21.03.2017 20:00:00 14,9 6,7 12,5 13,5 11,7 7 4 11 6 N 1011,3 20 0 0,0
21.03.2017 19:00:00 15,9 6,6 13,1 13,4 11,7 5 3 12 7 N 1011,0 20 0 0,0
21.03.2017 18:00:00 17,0 7,3 16,4 13,3 11,7 7 4 11 6 NNE 1010,5 20 0 0,0
21.03.2017 17:00:00 18,1 5,6 18,3 13,2 11,7 0 0 5 3 N 1010,4 20 0 0,0
21.03.2017 16:00:00 18,7 6,5 20,4 13,0 11,7 0 0 6 4 N 1010,4 20 0 0,0
21.03.2017 15:00:00 18,6 6,4 22,3 13,0 11,7 4 2 10 5 N 1010,7 20 35 0,0
21.03.2017 14:00:00 18,9 6,4 22,0 12,9 11,7 3 2 15 8 E 1011,3 20 56 0,0
21.03.2017 13:00:00 17,5 7,0 21,0 12,8 11,7 11 6 22 12 NNE 1012,0 20 60 0,0
21.03.2017 12:00:00 16,8 6,3 20,4 12,8 11,6 15 8 25 14 NNE 1012,4 20 58 0,0
21.03.2017 11:00:00 16,6 7,0 20,7 12,8 11,6 15 8 24 13 NNE 1012,9 20 60 0,0
21.03.2017 10:00:00 15,5 6,5 18,2 12,9 11,6 14 7 34 18 N 1013,1 20 60 0,0
21.03.2017 09:00:00 14,8 5,8 15,6 12,9 11,6 16 9 29 16 N 1013,1 20 60 0,0
21.03.2017 08:00:00 13,0 6,6 11,3 13,0 11,6 10 5 24 13 NNE 1013,2 20 35 0,0
21.03.2017 07:00:00 12,5 5,9 10,8 13,0 11,6 11 6 31 17 N 1013,1 20 0 0,0
21.03.2017 06:00:00 12,8 6,2 11,1 13,2 11,6 16 8 38 20 N 1013,0 20 0 0,0
21.03.2017 05:00:00 12,8 6,6 11,0 13,2 11,6 13 7 32 18 N 1013,0 20 0 0,0
21.03.2017 04:00:00 12,8 7,5 11,6 13,2 11,6 16 9 33 18 NNE 1012,9 20 0 0,0
21.03.2017 03:00:00 13,6 7,8 10,4 13,3 11,6 17 9 26 14 NNE 1013,2 20 0 0,0
21.03.2017 02:00:00 11,4 8,6 8,0 13,3 11,6 0 0 7 4 N 1013,5 20 0 0,0
21.03.2017 01:00:00 12,5 8,6 8,9 13,3 11,5 2 1 7 4 W 1013,5 20 0 0,0
21.03.2017 00:00:00 13,4 8,9 11,3 13,4 11,5 4 2 10 5 N 1013,9 20 0 0,0
20.03.2017 23:00:00 13,8 8,6 12,2 13,4 11,5 6 3 11 6 ENE 1014,1 20 0 0,0
20.03.2017 22:00:00 13,0 8,9 9,8 13,4 11,5 7 4 16 8 NNE 1014,0 20 0 0,0
20.03.2017 21:00:00 13,5 8,1 10,7 13,3 11,5 6 3 10 5 NE 1013,4 20 0 0,0
20.03.2017 20:00:00 14,6 8,3 11,6 13,2 11,5 7 4 11 6 N 1012,9 20 0 0,0
20.03.2017 19:00:00 16,3 8,3 13,4 13,2 11,5 5 3 15 8 N 1012,5 20 2 0,0
20.03.2017 18:00:00 17,8 8,6 17,9 13,0 11,5 11 6 26 14 NNE 1012,1 20 60 0,0
20.03.2017 17:00:00 18,6 8,5 21,6 12,8 11,4 14 7 28 15 NNE 1012,0 20 60 0,0
20.03.2017 16:00:00 18,5 8,7 23,5 12,8 11,5 18 10 33 18 NNE 1012,2 20 60 0,0
20.03.2017 15:00:00 18,3 9,1 23,2 12,7 11,5 23 12 34 18 NNE 1012,4 20 60 0,0
20.03.2017 14:00:00 17,8 8,6 22,4 12,5 11,5 22 12 38 21 NNE 1012,9 20 60 0,0
20.03.2017 13:00:00 17,1 8,8 21,2 12,5 11,4 23 13 38 20 NNE 1013,6 20 60 0,0
20.03.2017 12:00:00 16,2 8,4 18,6 12,4 11,4 21 11 43 23 NNE 1014,5 20 56 0,0
20.03.2017 11:00:00 15,5 8,2 18,6 12,5 11,5 24 13 43 23 N 1014,7 20 53 0,0
20.03.2017 10:00:00 15,4 8,2 15,5 12,5 11,4 19 10 36 19 N 1014,8 20 30 0,0
20.03.2017 09:00:00 14,2 7,9 14,0 12,5 11,4 18 10 43 23 N 1014,8 20 0 0,0
20.03.2017 08:00:00 13,8 8,0 13,2 12,6 11,4 18 10 44 24 N 1015,1 20 0 0,0
20.03.2017 07:00:00 13,8 8,2 12,9 12,6 11,4 18 10 38 21 N 1014,7 20 0 0,0
20.03.2017 06:00:00 13,7 8,1 12,9 12,6 11,4 21 11 35 19 N 1014,3 20 0 0,0
20.03.2017 05:00:00 13,8 8,4 12,6 12,7 11,4 15 8 32 17 NNE 1014,3 20 0 0,0
20.03.2017 04:00:00 13,9 8,3 12,9 12,7 11,4 14 8 37 20 N 1014,2 20 0 0,0
20.03.2017 03:00:00 14,2 8,6 13,2 12,7 11,4 18 10 49 26 N 1014,6 20 0 0,0
20.03.2017 02:00:00 14,5 8,7 13,5 12,8 11,4 22 12 46 25 N 1015,0 20 0 0,0
20.03.2017 01:00:00 15,0 8,9 13,8 12,8 11,4 23 13 53 29 N 1014,9 20 0 0,0
20.03.2017 00:00:00 15,3 8,8 14,3 12,8 11,4 19 11 43 23 N 1015,0 20 0 0,0
19.03.2017 23:00:00 15,7 8,7 13,7 12,8 11,4 21 11 39 21 N 1014,8 20 0 0,0
19.03.2017 22:00:00 15,4 8,6 13,6 12,7 11,4 16 8 29 15 NNE 1014,9 20 0 0,0
19.03.2017 21:00:00 15,3 8,5 13,9 12,7 11,4 13 7 23 13 NE 1014,8 20 0 0,0
19.03.2017 20:00:00 16,0 8,7 14,3 12,6 11,4 11 6 25 14 NNE 1014,6 20 0 0,0
19.03.2017 19:00:00 17,0 9,4 15,7 12,5 11,3 16 8 41 22 NNE 1014,2 20 13 0,0
19.03.2017 18:00:00 18,0 9,3 18,2 12,4 11,3 27 15 50 27 NNE 1013,8 20 60 0,0
19.03.2017 17:00:00 18,7 9,7 20,3 12,3 11,3 28 15 51 27 NNE 1013,8 20 60 0,0
19.03.2017 16:00:00 18,6 9,9 19,0 12,1 11,3 28 15 55 30 NNE 1013,9 20 53 0,0
19.03.2017 15:00:00 17,7 9,3 20,0 12,0 11,3 35 19 58 31 NNE 1014,2 20 60 0,0
19.03.2017 14:00:00 17,6 9,2 21,0 12,0 11,3 31 17 56 30 NNE 1014,6 20 60 0,0
19.03.2017 13:00:00 17,1 9,0 20,5 11,9 11,3 34 18 53 29 NNE 1015,3 20 60 0,0
19.03.2017 12:00:00 16,4 8,4 19,3 11,9 11,3 28 15 55 30 N 1015,8 20 60 0,0
19.03.2017 11:00:00 15,3 7,8 18,4 11,9 11,3 31 17 52 28 NNE 1016,6 20 60 0,0
19.03.2017 10:00:00 14,2 7,3 16,1 12,0 11,3 25 14 45 24 NNE 1017,1 20 60 0,0
19.03.2017 09:00:00 12,9 6,7 14,5 12,0 11,3 27 15 53 28 NNE 1017,4 20 60 0,0
19.03.2017 08:00:00 12,5 6,5 11,3 12,1 11,3 30 16 58 31 N 1017,6 20 34 0,0
19.03.2017 07:00:00 12,0 6,3 10,6 12,2 11,3 30 16 51 28 N 1017,4 20 0 0,0
19.03.2017 06:00:00 11,9 6,0 10,6 12,2 11,3 22 12 34 19 N 1017,1 20 0 0,0
19.03.2017 05:00:00 12,1 5,9 11,0 12,2 11,3 17 9 37 20 N 1017,6 20 0 0,0
19.03.2017 04:00:00 12,5 5,9 11,4 12,3 11,3 16 9 44 24 N 1018,0 20 0 0,0
19.03.2017 03:00:00 12,9 6,2 11,7 12,3 11,2 18 10 38 20 NNW 1017,7 20 0 0,0
19.03.2017 02:00:00 13,2 6,5 12,0 12,3 11,2 17 9 40 22 N 1018,0 20 0 0,0
19.03.2017 01:00:00 13,7 6,5 12,4 12,4 11,2 23 12 48 26 N 1018,3 20 0 0,0
19.03.2017 00:00:00 13,7 6,5 12,4 12,4 11,3 22 12 38 20 N 1018,5 20 0 0,0
18.03.2017 23:00:00 13,4 6,5 12,4 12,4 11,2 10 5 23 12 N 1019,4 20 0 0,0
18.03.2017 22:00:00 13,3 6,6 8,9 12,5 11,3 8 5 16 9 N 1019,7 20 0 0,0
18.03.2017 21:00:00 12,9 6,0 10,0 12,4 11,2 0 0 24 13 N 1019,5 20 0 0,0
18.03.2017 20:00:00 13,8 6,2 12,4 12,4 11,2 12 6 29 15 NNE 1019,2 20 0 0,0
18.03.2017 19:00:00 13,9 6,3 12,8 12,3 11,2 15 8 30 16 N 1019,0 20 0 0,0
18.03.2017 18:00:00 14,6 6,2 14,4 12,2 11,2 17 9 35 19 N 1018,7 20 30 0,0
18.03.2017 17:00:00 15,0 5,8 16,9 12,2 11,2 19 11 44 24 NNE 1018,5 20 60 0,0
18.03.2017 16:00:00 15,6 5,8 17,9 12,0 11,2 27 14 49 26 NNE 1018,5 20 60 0,0
18.03.2017 15:00:00 15,5 3,9 16,9 12,0 11,2 29 16 54 29 NNE 1018,9 20 40 0,0
18.03.2017 14:00:00 16,6 4,3 18,8 11,9 11,1 35 19 53 29 NNE 1019,2 18 60 0,0
18.03.2017 13:00:00 15,7 6,1 18,0 11,8 11,1 26 14 43 23 NNE 1019,3 16 38 0,0
18.03.2017 12:00:00 15,4 6,7 18,8 11,9 11,1 29 16 49 27 NNE 1019,7 14 57 0,0
18.03.2017 11:00:00 14,9 7,2 17,0 11,9 11,1 28 15 44 24 NNE 1020,0 13 60 0,0
18.03.2017 10:00:00 13,6 6,7 15,1 12,0 11,1 24 13 46 25 NNE 1020,1 11 45 0,0
18.03.2017 09:00:00 13,3 7,1 12,3 12,0 11,1 18 10 32 17 N 1019,9 11 13 0,0
18.03.2017 08:00:00 12,0 7,1 10,7 12,1 11,1 16 9 37 20 NNE 1019,8 10 0 0,0
18.03.2017 07:00:00 11,5 6,8 10,1 12,2 11,1 18 10 31 17 NNE 1019,9 10 0 0,0
18.03.2017 06:00:00 11,7 7,2 10,6 12,3 11,1 16 9 37 20 NNE 1019,6 9 0 0,0
18.03.2017 05:00:00 12,7 7,8 11,1 12,4 11,1 23 12 38 20 NNE 1019,5 10 0 0,0
18.03.2017 04:00:00 12,4 7,3 5,1 12,5 11,1 18 10 29 16 N 1018,7 19 0 0,0
18.03.2017 03:00:00 7,5 5,1 4,3 12,6 11,1 2 1 13 7 NNE 1019,0 18 0 0,0
18.03.2017 02:00:00 7,5 5,0 3,9 12,6 11,0 0 0 4 2 N 1019,3 17 0 0,0
18.03.2017 01:00:00 8,4 5,5 4,8 12,7 11,0 0 0 5 3 N 1019,2 12 0 0,0
18.03.2017 00:00:00 10,0 6,2 6,6 12,7 11,0 5 3 13 7 N 1019,3 19 0 0,0
17.03.2017 23:00:00 10,1 5,3 6,5 12,7 11,0 4 2 8 5 ESE 1018,8 20 0 0,0
17.03.2017 22:00:00 11,1 6,2 7,0 12,7 11,0 0 0 5 3 N 1019,1 20 0 0,0
17.03.2017 21:00:00 13,2 5,8 8,4 12,6 11,0 0 0 8 4 N 1018,7 20 0 0,0
17.03.2017 20:00:00 14,6 5,4 9,2 12,5 11,0 4 2 7 4 ENE 1018,1 20 0 0,0
17.03.2017 19:00:00 18,8 3,8 12,3 12,3 11,0 0 0 13 7 N 1017,5 20 8 0,0
17.03.2017 18:00:00 22,6 3,7 20,8 12,1 11,0 4 2 9 5 SSW 1017,0 20 60 0,0
17.03.2017 17:00:00 23,6 1,8 27,5 11,9 11,0 0 0 6 3 N 1017,2 20 60 0,0
17.03.2017 16:00:00 23,6 1,8 28,2 11,7 11,0 3 1 8 4 S 1017,7 20 60 0,0
17.03.2017 15:00:00 22,6 1,6 27,3 11,6 11,0 3 1 10 5 E 1018,2 20 60 0,0
17.03.2017 14:00:00 21,9 0,4 25,6 11,4 10,9 3 2 16 8 SE 1019,1 20 60 0,0
17.03.2017 13:00:00 20,4 0,8 23,7 11,4 11,0 9 5 16 9 S 1020,0 20 60 0,0

tt = Température de l'air
td = dewpoint
tt 5cm = Température de l'air 5cm
tt -20cm = Température de l'air -20cm
tt -100cm = Température de l'air -100cm
ff = Vitesse du vent
fx = gusts
dd = Direction du vent
ppp = reduced air pressure
vv = visibility
sd = Ensoleillement
rr = Quantités de précipitations

stations d'obs. à proximité